Riverside, CA

9:01 PM PDT on March 22, 2017 (GMT -0700)
Riverside Municipal

Weather History for KRAL - June, 2013

Change the Weather History Date:

Friday, June 7, 2013

  Actual Average Record
Temperature  
Mean Temperature 72 °F 70 °F  
Max Temperature 86 °F 83 °F 104 °F (1985)
Min Temperature 58 °F 58 °F 42 °F (1950)
Degree Days  
Heating Degree Days 0 0  
Month to date heating degree days 0 0  
Since 1 June heating degree days 0 0  
Since 1 July heating degree days 1168 1444  
Cooling Degree Days 7 6  
Month to date cooling degree days 58 37  
Year to date cooling degree days 344 214  
Since 1 June cooling degree days 58 37  
Growing Degree Days 20 (Base 50)    
Moisture  
Dew Point 55 °F    
Average Humidity 64    
Maximum Humidity 93    
Minimum Humidity 34    
Precipitation  
Precipitation 0.00 in 0.00 in 0.10 in (1907)
Month to date precipitation 0.00 0.02  
Year to date precipitation 2.21 9.11  
Since 1 July precipitation 4.12  
Snow  
Snow 0.00 in - - ()
Month to date snowfall 0.0  
Year to date snowfall 0.0  
Snow Depth 0.00 in    
Sea Level Pressure  
Sea Level Pressure 29.82 in    
Wind  
Wind Speed 4 mph (West)    
Max Wind Speed 13 mph    
Max Gust Speed 20 mph    
Visibility 6 miles    
Events      
T = Trace of Precipitation, MM = Missing Value Source: NWS Daily Summary

Daily Weather History Graph

Daily Weather History Graph

Search for Another Location

Airport or City:

Trip Planner

Search our weather history database for the weather conditions in past years. The results will help you decide how hot, cold, wet, or windy it might be!

Date:

Astronomy

Jun. 07, 2013 Rise Set
Actual Time 5:38 AM PDT 7:59 PM PDT
Civil Twilight 5:09 AM PDT 8:28 PM PDT
Nautical Twilight 4:33 AM PDT 9:03 PM PDT
Astronomical Twilight 3:55 AM PDT 9:42 PM PDT
Moon 5:01 AM PDT (6/7) 7:19 PM PDT (6/7)
Length of Visible Light 15h 18m
Length of Day
14h 20m
Waning Crescent, 1% of the Moon is Illuminated
Jun 7
Waning Crescent
Jun 8
New
Jun 16
First Quarter
Jun 23
Full
Jun 29
Last Quarter

Hourly Weather History & Observations

Time (PDT) Temp. Heat Index Dew Point Humidity Pressure Visibility Wind Dir Wind Speed Gust Speed Precip Events Conditions
12:53 AM 61.0 °F - 55.0 °F 81% 29.87 in 10.0 mi West 4.6 mph - N/A   Clear
1:53 AM 59.0 °F - 55.0 °F 87% 29.86 in 8.0 mi Calm Calm - N/A   Clear
2:53 AM 57.9 °F - 55.0 °F 90% 29.84 in 5.0 mi West 3.5 mph - N/A   Clear
3:02 AM 57.2 °F - 55.4 °F 94% 29.88 in 5.0 mi Calm Calm - N/A   Scattered Clouds
3:11 AM 57.2 °F - 55.4 °F 94% 29.88 in 5.0 mi Calm Calm - N/A   Mostly Cloudy
3:53 AM 59.0 °F - 55.0 °F 87% 29.83 in 4.0 mi Calm Calm - N/A   Overcast
4:53 AM 59.0 °F - 55.0 °F 87% 29.83 in 4.0 mi NW 3.5 mph - N/A   Overcast
5:53 AM 59.0 °F - 55.0 °F 87% 29.83 in 4.0 mi SW 3.5 mph - N/A   Overcast
6:12 AM 59.0 °F - 55.4 °F 88% 29.88 in 2.5 mi WSW 3.5 mph - N/A   Overcast
6:53 AM 59.0 °F - 55.9 °F 90% 29.84 in 2.5 mi Calm Calm - N/A   Overcast
7:00 AM 59.0 °F - 55.4 °F 88% 29.88 in 3.0 mi Calm Calm - N/A   Overcast
7:10 AM 59.0 °F - 55.4 °F 88% 29.88 in 2.5 mi Calm Calm - N/A   Overcast
7:53 AM 60.1 °F - 55.9 °F 86% 29.85 in 2.5 mi Calm Calm - N/A   Overcast
8:30 AM 60.8 °F - 55.4 °F 82% 29.89 in 3.0 mi ENE 3.5 mph - N/A   Overcast
8:53 AM 61.0 °F - 55.9 °F 83% 29.85 in 3.0 mi East 3.5 mph - N/A   Haze
9:53 AM 64.0 °F - 55.9 °F 75% 29.85 in 3.0 mi Variable 4.6 mph - N/A   Haze
10:03 AM 64.4 °F - 55.4 °F 73% 29.88 in 3.0 mi Variable 3.5 mph - N/A   Haze
10:23 AM 64.4 °F - 55.4 °F 73% 29.88 in 4.0 mi WSW 4.6 mph - N/A   Haze
10:53 AM 68.0 °F - 55.9 °F 65% 29.83 in 4.0 mi Calm Calm - N/A   Haze
11:53 AM 73.9 °F - 57.0 °F 55% 29.81 in 5.0 mi Variable 6.9 mph - N/A   Haze
12:53 PM 78.1 °F - 54.0 °F 43% 29.79 in 7.0 mi Variable 4.6 mph - N/A   Clear
1:53 PM 82.9 °F 82.0 °F 55.0 °F 38% 29.77 in 8.0 mi Variable 6.9 mph - N/A   Clear
2:53 PM 84.0 °F 82.6 °F 54.0 °F 35% 29.75 in 10.0 mi West 9.2 mph - N/A   Clear
3:53 PM 84.9 °F 83.3 °F 54.0 °F 34% 29.74 in 10.0 mi West 8.1 mph - N/A   Clear
4:53 PM 84.9 °F 83.6 °F 55.0 °F 36% 29.72 in 10.0 mi Variable 6.9 mph 16.1 mph N/A   Clear
5:53 PM 81.0 °F 80.8 °F 55.9 °F 42% 29.73 in 10.0 mi West 8.1 mph - N/A   Clear
6:53 PM 75.9 °F - 55.9 °F 50% 29.74 in 10.0 mi West 10.4 mph - N/A   Clear
7:53 PM 73.0 °F - 57.0 °F 57% 29.75 in 10.0 mi West 9.2 mph - N/A   Clear
8:53 PM 68.0 °F - 57.0 °F 68% 29.78 in 10.0 mi West 8.1 mph - N/A   Clear
9:53 PM 64.9 °F - 55.9 °F 73% 29.80 in 10.0 mi West 6.9 mph - N/A   Clear
10:53 PM 64.0 °F - 55.9 °F 75% 29.81 in 10.0 mi Calm Calm - N/A   Clear
11:53 PM 63.0 °F - 55.9 °F 78% 29.80 in 9.0 mi West 5.8 mph - N/A   Clear